Date,TemperatureHighF,TemperatureAvgF,TemperatureLowF,DewpointHighF,DewpointAvgF,DewpointLowF,HumidityHigh,HumidityAvg,HumidityLow,PressureMaxIn,PressureMinIn,WindSpeedMaxMPH,WindSpeedAvgMPH,GustSpeedMaxMPH,PrecipitationSumIn
2013-1-1,27.2,20.4,7.4,21.1,13.1,4.2,88,74,57,30.17,30.02,15,2,15,0.00
2013-1-2,25.8,21.4,14.7,20.2,16.6,10.7,87,82,75,30.21,30.09,14,2,15,0.00
2013-1-3,28.9,22.0,12.6,25.9,17.8,7.1,91,84,76,30.18,30.07,14,3,14,0.00
2013-1-4,30.4,26.2,22.1,25.1,21.1,18.2,89,81,68,30.20,30.03,24,6,24,0.00
2013-1-5,32.9,25.1,11.3,30.8,22.1,9.4,97,89,74,30.30,30.02,13,2,13,0.01
2013-1-6,35.4,33.2,31.6,32.6,30.2,26.2,95,89,80,30.27,29.91,16,4,17,0.01
2013-1-7,35.2,31.2,27.6,27.1,25.0,22.3,82,77,69,30.38,30.20,22,4,22,0.01
2013-1-14,17.4,14.9,13.4,14.9,13.3,11.7,95,93,90,30.42,30.39,2,0,3,0.00
2013-1-15,30.1,19.6,8.7,21.8,16.0,6.9,95,86,69,30.47,30.17,6,0,6,0.00
2013-1-16,37.1,27.2,16.8,28.7,20.0,15.4,96,77,43,30.17,29.82,21,4,23,0.00
2013-1-17,35.2,29.1,17.9,29.9,21.6,9.9,88,74,57,30.32,29.97,21,5,21,0.00
2013-1-18,34.4,25.0,12.0,24.6,16.5,7.7,86,70,56,30.44,29.98,31,5,31,0.00
2013-1-19,47.5,41.3,34.3,36.6,31.3,24.5,75,67,58,29.98,29.56,24,8,25,0.00
2013-1-20,43.7,28.2,15.5,35.9,17.1,6.3,75,63,47,30.18,29.55,39,10,39,0.00
2013-1-21,16.3,11.8,3.2,13.5,6.6,-1.7,90,79,62,30.16,29.98,19,4,19,0.00
2013-1-22,9.4,3.3,-5.2,3.0,-3.0,-9.6,85,75,59,30.33,30.14,18,5,19,0.00
2013-1-23,16.7,9.8,-0.2,9.8,4.7,-3.2,90,80,68,30.33,30.11,15,3,15,0.00
2013-1-24,19.1,11.4,6.3,10.8,4.1,-1.4,90,74,43,30.63,30.15,14,3,14,0.00
2013-1-25,21.6,16.8,11.5,16.4,12.3,3.7,92,83,70,30.53,30.04,11,1,11,0.00
2013-1-26,25.7,20.7,13.9,18.2,16.0,11.2,93,82,64,30.47,30.07,13,2,13,0.00
2013-1-27,30.2,20.1,7.8,28.2,15.9,5.4,95,84,65,30.50,30.10,20,2,20,0.02
2013-1-28,45.9,37.5,30.1,45.6,36.9,28.3,99,98,93,30.14,29.86,13,3,13,0.01
2013-1-29,57.3,46.6,34.8,55.4,46.2,34.3,100,99,93,30.01,29.43,20,4,21,0.55
2013-1-30,60.7,49.3,31.0,58.3,47.9,26.1,99,95,88,29.44,29.08,24,5,25,0.17
2013-1-31,30.7,21.4,15.6,27.3,15.9,11.4,93,79,66,29.90,29.24,29,10,29,0.17